DW8913 Weather Reports


Display with metric or nautical units.
time (UTC)temp
F
wind
direction
speed
MPH
gust
MPH
rain 1hr
in
rain 24hr
in
rain mn
in
humidity
%
barometer
mb
20260505094544 56 110 0.0 3.0 0.00 0.00 0.00 85 1011.5
20260505093015 58 117 0.0 3.0 0.00 0.00 0.00 81 1011.4
20260505091606 57 92 0.0 2.0 0.00 0.00 0.00 82 1011.2
20260505090032 57 139 0.0 2.0 0.00 0.00 0.00 84 1011.2
20260505084502 57 169 0.0 3.0 0.00 0.00 0.00 85 1011.2
20260505083046 57 86 0.0 3.0 0.00 0.00 0.00 85 1011.2
20260505081516 57 120 1.0 4.0 0.00 0.00 0.00 85 1011.2
20260505080058 57 112 2.0 6.0 0.00 0.00 0.00 86 1011.3
20260505074527 57 187 1.0 4.0 0.00 0.00 0.00 85 1011.2
20260505073138 57 104 2.0 7.0 0.00 0.00 0.00 84 1011.2
20260505071601 58 122 2.0 4.0 0.00 0.00 0.00 84 1011.1
20260505070028 58 108 1.0 5.0 0.00 0.00 0.00 85 1011.0
20260505064606 57 39 1.0 4.0 0.00 0.00 0.00 86 1011.0
20260505063039 56 98 1.0 4.0 0.00 0.00 0.00 87 1011.0
20260505061517 56 105 1.0 8.0 0.00 0.00 0.00 88 1011.1
20260505060053 56 187 2.0 6.0 0.00 0.00 0.00 88 1011.2
20260505054522 56 65 1.0 5.0 0.00 0.00 0.00 87 1011.1
20260505053112 56 205 2.0 5.0 0.00 0.00 0.00 87 1011.2
20260505051557 56 151 1.0 5.0 0.00 0.00 0.00 87 1011.4
20260505041602 56 103 2.0 6.0 0.00 0.00 0.00 86 1011.6
20260505040028 56 113 1.0 6.0 0.00 0.00 0.00 85 1011.5
20260505034612 56 156 2.0 7.0 0.00 0.00 0.00 83 1011.5
20260505033041 57 114 3.0 8.0 0.00 0.00 0.00 83 1011.5
20260505031516 57 207 2.0 5.0 0.00 0.00 0.00 83 1011.6
20260505030055 57 129 3.0 9.0 0.00 0.00 0.00 83 1011.7
20260505024524 56 108 2.0 9.0 0.00 0.00 0.00 84 1011.7
20260505023105 56 138 3.0 8.0 0.00 0.00 0.00 84 1011.8
20260505021533 56 76 3.0 10.0 0.00 0.00 0.00 85 1011.9
20260505020108 56 202 2.0 7.0 0.00 0.00 0.00 85 1011.8
20260505014537 56 81 1.0 6.0 0.00 0.00 0.00 84 1011.8
20260505013008 56 81 3.0 8.0 0.00 0.00 0.00 84 1011.8
20260505011551 57 96 3.0 8.0 0.00 0.00 0.00 82 1011.6
20260505010021 57 65 2.0 8.0 0.00 0.00 0.00 81 1011.6
20260505004600 58 155 3.0 9.0 0.00 0.00 0.00 79 1011.5
20260505003033 58 114 3.0 8.0 0.00 0.00 0.00 78 1011.5
20260505001510 58 67 3.0 9.0 0.00 0.00 0.00 77 1011.4
20260505000106 59 65 3.0 10.0 0.00 0.00 0.00 74 1011.2
20260504234523 60 84 3.0 12.0 0.00 0.00 0.00 71 1011.1
20260504233107 60 121 3.0 10.0 0.00 0.00 0.00 71 1011.0
20260504231533 61 113 4.0 11.0 0.00 0.00 0.00 71 1010.9
20260504230002 61 180 5.0 12.0 0.00 0.00 0.00 70 1011.0
20260504224538 62 130 4.0 10.0 0.00 0.00 0.00 67 1010.9
20260504223010 61 103 4.0 10.0 0.00 0.00 0.00 68 1010.9
20260504221551 61 91 3.0 8.0 0.00 0.00 0.00 70 1010.7
20260504220031 60 63 2.0 9.0 0.00 0.00 0.00 72 1010.8
20260504214616 60 89 1.0 6.0 0.00 0.00 0.00 75 1010.8
20260504213034 60 86 1.0 6.0 0.00 0.00 0.00 75 1010.9
20260504211505 61 75 2.0 6.0 0.00 0.00 0.00 74 1011.1
20260504210049 61 89 2.0 8.0 0.00 0.00 0.00 74 1011.2
20260504204523 60 186 3.0 11.0 0.00 0.00 0.00 76 1011.2
20260504203107 59 163 3.0 9.0 0.00 0.00 0.00 77 1011.4
20260504201529 60 158 3.0 9.0 0.00 0.00 0.00 75 1011.6
20260504200002 61 100 2.0 8.0 0.00 0.00 0.00 73 1011.8
20260504194547 62 181 1.0 8.0 0.00 0.00 0.00 73 1012.0
20260504193019 62 122 2.0 8.0 0.00 0.00 0.00 72 1012.2
20260504191604 62 80 2.0 7.0 0.00 0.00 0.00 71 1012.3
20260504190027 62 136 2.0 9.0 0.00 0.00 0.00 71 1012.4
20260504184638 63 33 2.0 7.0 0.00 0.00 0.00 71 1012.8
20260504183033 63 82 3.0 10.0 0.00 0.00 0.00 70 1012.7
20260504181507 63 217 2.0 6.0 0.00 0.00 0.00 70 1012.9
20260504180049 63 75 1.0 9.0 0.00 0.00 0.00 71 1012.9
20260504174515 63 166 2.0 7.0 0.00 0.00 0.00 68 1013.1
20260504173056 63 173 2.0 8.0 0.00 0.00 0.00 69 1013.1
20260504171522 63 186 2.0 10.0 0.00 0.00 0.00 69 1013.3
20260504110107 53 122 1.0 4.0 0.00 0.00 0.00 77 1015.7